AirNav   ATP
 
 623 users online  

KACZ Henderson Field Airport
Wallace, North Carolina, USA

GOING TO WALLACE?


FAA INFORMATION EFFECTIVE 16 AUGUST 2018

Location

FAA Identifier: ACZ
Lat/Long: 34-43-04.3000N / 078-00-14.0000W
34-43.071667N / 078-00.233333W
34.7178611 / -78.0038889
(estimated)
Elevation: 38.1 ft. / 11.6 m (surveyed)
Variation: 09W (2000)
From city: 1 mile SW of WALLACE, NC
Time zone: UTC -4 (UTC -5 during Standard Time)
Zip code: 28466

Airport Operations

Airport use: Open to the public
Activation date: 06/1954
Control tower: no
ARTCC: WASHINGTON CENTER
FSS: RALEIGH FLIGHT SERVICE STATION
NOTAMs facility: RDU (NOTAM-D service available)
Attendance: MON-SAT 0800-1700, ALL SUN 1300-1800
24 HR ACCESS TO PILOTS' LOUNGE - DOOR CODE ON FUEL RECEIPT.
Wind indicator: lighted
Segmented circle: yes
Lights: ACTVT MIRLS RWYS 9/27- CTAF. PAPIS OPR CONSLY.
Beacon: white-green (lighted land airport)
Operates sunset to sunrise.

Airport Communications

CTAF/UNICOM: 122.8
WILMINGTON APPROACH: 135.75
WILMINGTON DEPARTURE: 135.75
WX AWOS-3 at DPL (17 nm N): 120.675 (910-296-9688)
  • APCH/DEP SVC PRVDD BY WASHINGTON ARTCC ON FREQS 124.025/269.15 (WILMINGTON RCAG) WHEN WILMINGTON APCH CTL CLSD.

Nearby radio navigation aids

VOR radial/distance  VOR name  Freq  Var
ILMr351/22.9WILMINGTON VORTAC117.0007W

 
NDB name  Hdg/Dist  Freq  Var  ID
ELLAS270/14.926108WOA --- .-
CLINTON140/23.441209WCTZ -.-. - --..
ELIZABETHTOWN074/27.739808WTGQ - --. --.-
DIXON296/28.619808WDIW -.. .. .--
CAROLINA BEACH006/36.821609WCLB -.-. .-.. -...

Airport Services

Fuel available: 100LL JET-A1+
24 HR SELF SERVICE FUEL WITH CREDIT CARD.
Parking: tiedowns
Airframe service: MAJOR
Powerplant service: MAJOR
Bottled oxygen: NONE
Bulk oxygen: NONE

Runway Information

Runway 9/27

Dimensions: 4153 x 75 ft. / 1266 x 23 m
Surface: asphalt, in good condition
Weight bearing capacity: 
Single wheel: 12.5
Runway edge lights: medium intensity
RUNWAY 9  RUNWAY 27
Latitude: 34-43.042453N34-43.101515N
Longitude: 078-00.645852W077-59.819745W
Elevation: 37.9 ft.29.2 ft.
Gradient: 0.3%0.3%
Traffic pattern: leftleft
Runway heading: 094 magnetic, 085 true274 magnetic, 265 true
Displaced threshold: 149 ft.151 ft.
Markings: nonprecision, in fair conditionnonprecision, in fair condition
Visual slope indicator: 2-light PAPI on left (3.13 degrees glide path)2-light PAPI on left (3.53 degrees glide path)
Touchdown point: yes, no lightsyes, no lights
Obstructions: 33 ft. pole, 784 ft. from runway, 36 ft. left of centerline, 17:1 slope to clear
APCH SLOPE 20:1 TO DSPLCD THLD.
78 ft. trees, 1661 ft. from runway, 195 ft. left of centerline, 18:1 slope to clear
APCH SLOPE 20:1 TO DSPLCD THR.

Airport Ownership and Management from official FAA records

Ownership: Publicly-owned
Owner: TOWN OF WALLACE
316 E. MURRAY STREET, PO BOX 849
WALLACE, NC 28466
Phone 910-285-4136
Manager: GAGE KING
250 HENDERSON FIELD ROAD
WALLACE, NC 28466
Phone 910-271-8955
FBO (DAY): 910-285-6642. AFT HRS: 910-271-8955. ALTN (POLICE DEPT): 910-285-2126.

Airport Operational Statistics

Aircraft based on the field: 22
Single engine airplanes: 20
Multi engine airplanes: 1
Helicopters: 1
    
Aircraft operations: avg 46/day *
59% transient general aviation
27% local general aviation
14% military
* for 12-month period ending 22 June 2018

Additional Remarks

5' DITCH 135' RIGHT OF CNTRLN RWY 09.
7' DITCH 140' LEFT OF CNTRLN RWY 27.
RWY 27 SAFETY AREA HAS 20' DEPRESSIONS/CREEK 160'FR THR BOTH SIDES C/L.
MIL ACFT LIMIT DELAY ON RY TO AVOID DAMAGE TO RY SURFACES
NOISE ABATEMENT PROCEDURES IN EFFECT, CALL AMGR 910-271-8955
HENDERSON FIELD ARPT CLSD TO TOUCH & GO/PRACTICE APPROACHES 2100-0600 LCL DLY.
ARPT CLSD TO MIL ACFT EXCEPT 1 HR PPR

Instrument Procedures

NOTE: All procedures below are presented as PDF files. If you need a reader for these files, you should download the free Adobe Reader.

NOT FOR NAVIGATION. Please procure official charts for flight.
FAA instrument procedures published for use from 16 August 2018 at 0901Z to 13 September 2018 at 0900Z.

 
IAPs - Instrument Approach Procedures
RNAV (GPS) RWY 09   download (206KB)
RNAV (GPS) RWY 27   download (180KB)
NOTE: Special Take-Off Minimums/Departure Procedures apply   download (141KB)

Other nearby airports with instrument procedures:

KDPL - Duplin County Airport (17 nm N)
KOAJ - Albert J Ellis Airport (20 nm E)
KCTZ - Clinton-Sampson County Airport (24 nm NW)
KILM - Wilmington International Airport (27 nm S)
KNCA - New River Marine Corps Air Station (H) (McCutcheon Field) (28 nm E)
 
Loc | Ops | Rwys | IFR | FBO | Links
Com | Nav | Svcs | Stats | Notes


 
Area around KACZ (Henderson Field Airport)
 
Road maps at: MapQuest Bing Google
 
Aerial photo
WARNING: Photo may not be current or correct
Aerial photo of KACZ (Henderson Field Airport)
Photo by Richard Verdier
Photo taken 23-Oct-2014
looking west.

Do you have a better or more recent aerial photo of Henderson Field Airport that you would like to share? If so, please send us your photo.

 
Sectional chart

 
Airport distance calculator
Flying to Henderson Field Airport? Find the distance to fly.

From to KACZ

Sunrise and sunset
Times for 19-Aug-2018
 Local
(UTC-4)
 Zulu
(UTC)
Morning civil twilight06:1010:10
Sunrise06:3610:36
Sunset19:5523:55
Evening civil twilight20:2100:21

Current date and time
Zulu (UTC)  19-Aug-2018 04:48:31
Local (UTC-4)  19-Aug-2018 00:48:31
 
METAR
KDPL 
17nm N 
190430Z AUTO 23004KT 10SM SCT021 SCT031 SCT120 26/24 A2994 RMK AO2
KOAJ 
20nm E 
190356Z AUTO 21010KT 10SM SCT070 BKN090 BKN110 26/24 A2996 RMK AO2 LTG DSNT N SLP147 T02610239
KCTZ 
24nm NW 
190430Z AUTO 23009KT 190V250 5SM SCT006 BKN011 BKN019 25/25 A2995 RMK AO2 P0005 T02510250
KNCA 
27nm E 
190356Z AUTO 23010KT 10SM BKN095 OVC110 27/23 A2995 RMK AO2 SLP145 T02670233
KILM 
28nm S 
190353Z AUTO 22009KT 10SM CLR 27/23 A2997 RMK AO2 SLP147 T02720233
KEYF 
29nm W 
190430Z AUTO 23009KT 10SM VCTS CLR 27/23 A2996 RMK AO2 LTG DSNT N AND NE T02680227
TAF
KOAJ 
20nm E 
190222Z 1902/1924 21007KT P6SM VCTS SCT050CB TEMPO 1904/1907 3SM TSRA BKN035CB FM190700 21005KT P6SM VCSH BKN050 FM191000 22012KT P6SM SCT020 BKN040 FM191900 21009G16KT P6SM VCTS BKN050CB AMD LTD TO CLD VIS AND WIND
NOTAMs
Click for the latest NOTAMs
NOTAMs are issued by the DoD/FAA and will open in a separate window not controlled by AirNav.

 

 
 

FBO, Fuel Providers, and Aircraft Ground Support

  
 Business Name 
 
 Contact 
 
 Services / Description 
 
Fuel Prices
 
Comments
  
Henderson Field Airport 910-285-6642
910-271-8955
[web site]
[email]
Airport management, Aviation fuel, Aircraft parking (ramp or tiedown), Passenger terminal and lounge, Aircraft maintenance, Rental cars, Courtesy transportation, ...

More info about Henderson Field Airport
Phillips 66
100LL Jet A
AS $4.60 --- 
FS --- $4.30 
 Updated 25-Jul-2018
 
   1 read write
AS=Assisted/Self Service
FS=Full service
Update Fuel Prices
 

Would you like to see your business listed on this page?

 If your business provides an interesting product or service to pilots, flight crews, aircraft, or users of the Henderson Field Airport, you should consider listing it here.  To start the listing process, click on the button below
 
Add a business
 

Other Pages about Henderson Field Airport

Update a link
 
Copyright © AirNav, LLC. All rights reserved. Privacy Policy  Contact